User: anonymous   Login
Location: Unspecified
(0.0000°N, 0.0000°E)
Time: 22:25:49
(UTC+00:00)
Language:

HAIYANG 1C - Orbit

View from above orbital plane
View from above orbital plane
View from above satellite
View from above satellite

Ground track
Ground track

The orbit is defined by the following mean orbital elements,

1 43609U          26145.64065632 +.00000000 +00000-0 +11167-3 0 00004
2 43609  98.5191 218.2740 0011333 155.7120 204.4601 14.34171478    00
Epoch (UTC): 25 May 2026 15:22:32
Eccentricity: 0.0011333
inclination: 98.5191°
perigee height: 770 km
apogee height: 786 km
right ascension of ascending node: 218.2740°
argument of perigee: 155.7120°
revolutions per day: 14.34171478
mean anomaly at epoch: 204.4601°

The dashed part of the orbit path shows where the satellite is in the earth's shadow,  

DLR